Regional Weather Roundup
Issued by NWS

Home | Current Version | Previous Version | Text Only | Print | Product List | Glossary On
Versions: 1 2 3 4 5 6 7 8 9 10 11 12 13 14 15 16 17 18 19 20 21 22 23 24 25 26 27 28 29 30 31 32 33 34 35 36 37 38 39 40 41 42 43 44 45 46 47 48 49 50
000
ASUS45 KREV 291310
RWRNV
NEVADA REGIONAL WEATHER ROUNDUP
NATIONAL WEATHER SERVICE RENO NV
600 AM PDT FRI AUG 29 2014

NOTE: "FAIR" INDICATES FEW OR NO CLOUDS BELOW 12,000 FEET WITH NO
SIGNIFICANT WEATHER AND/OR OBSTRUCTIONS TO VISIBILITY.

NVZ001-003-004-291400-
WESTERN NEVADA

CITY           SKY/WX    TMP DP  RH WIND       PRES   REMARKS
RENO           PTCLDY    62  44  51 S3        30.10S
CARSON CITY    FAIR      59  43  55 CALM      30.12S
MINDEN         FAIR      50  41  71 CALM      30.13S
PYRAMID LAKE     N/A     72 N/A N/A S8          N/A
FALLON         CLEAR     60  36  40 S9        30.03R
LOVELOCK       CLEAR     53  34  48 S5        30.02R
HAWTHORNE      CLEAR     64  39  39 CALM      30.06S
$$

NVZ002-CAZ072-073-291400-
NORTHERN AND CENTRAL SIERRA

CITY           SKY/WX    TMP DP  RH WIND       PRES   REMARKS
S. LAKE TAHOE  MOCLDY    46  38  73 S5        30.22S
TRUCKEE        MOCLDY    37  36  93 CALM      30.22S
SQUAW VLY 8000 NOT AVBL
SUSANVILLE     CLEAR     54  39  58 CALM      30.08
BLUE CANYON    MOCLDY    68  35  29 NE5       30.16F
MAMMOTH LAKES  FAIR      46  30  53 CALM      30.27S
BRIDGEPORT     FAIR      44  33  65 CALM      30.24F
$$

NVZ030-031-036-291400-
NORTHERN NEVADA

CITY           SKY/WX    TMP DP  RH WIND       PRES   REMARKS
ELKO           CLEAR     51  36  56 NE3       30.12S
WINNEMUCCA     CLEAR     48  32  53 SE5       30.05S
WENDOVER       CLEAR     61  37  41 CALM      30.07R
$$

NVZ035-037-291400-
CENTRAL NEVADA

CITY           SKY/WX    TMP DP  RH WIND       PRES   REMARKS
ELY            PTCLDY    47  39  74 S12       30.20S
EUREKA           N/A     50  29  44 SW7       30.16S
$$

NVZ013-014-291400-
SOUTH CENTRAL NEVADA

CITY           SKY/WX    TMP DP  RH WIND       PRES   REMARKS
TONOPAH        PTCLDY    57  24  28 N12       30.15S
$$

NVZ017-020-022-291400-
SOUTHERN NEVADA

CITY           SKY/WX    TMP DP  RH WIND       PRES   REMARKS
LAS VEGAS      CLEAR     78  36  21 S9        29.87R
N. LAS VEGAS   CLEAR     76  36  23 W3        29.90R
NELLIS AFB     CLEAR     77  33  20 NW5       29.89R
HENDERSON      CLEAR     80  33  18 S12       29.94R
MERCURY        CLEAR     68  30  24 N5        29.98S
$$


USA.gov is the U.S. government's official web portal to all federal, state and local government web resources and services.